Skip Navigation Linkswww.weather.gov 
NOAA logo - Click to go to the NOAA homepage National Weather Service Forecast Office   NWS logo - Click to go to the NWS homepage    
Los Angeles, California
navigation bar decoration      
spacer
Printer Friendly  |   Go Back  |  Version: Current   1   2   3   4   5   6   7   8   9   10   |  Font:  A A A  |  

HOURLY WEATHER ROUNDUP
That Version is not available. Latest version shown.
 
 ASUS46 KSTO 251509
RWRCA

NORTHERN AND CENTRAL CA REGIONAL WEATHER ROUNDUP
NATIONAL WEATHER SERVICE SACRAMENTO CA
800 AM PDT SAT APR 25 2015

NOTE: FAIR INDICATES FEW OR NO CLOUDS BELOW 12,000 FEET WITH NO
SIGNIFICANT WEATHER AND/OR OBSTRUCTIONS TO VISIBILITY.

CAZ001-003-251600-
NORTHWEST AREA

CITY SKY/WX TMP DP RH WIND PRES REMARKS
CRESCENT CITY CLOUDY 50 45 83 CALM 30.01R
ARCATA NOT AVBL
SHELTER COVE NOT AVBL
UKIAH SUNNY 50 45 83 NW9 29.93R
$$

CAZ006-505>513-251600-
BAY AREA

CITY SKY/WX TMP DP RH WIND PRES REMARKS
SANTA ROSA FOG 50 50 100 CALM 29.91R VSB 1/2
SAN RAFAEL N/A 54 MM MM MISG
NAPA PTSUNNY 53 51 93 W16 29.91R
CONCORD CLOUDY 55 49 80 W10 29.93R
OAKLAND CITY N/A 53 MM MM MISG
OAKLAND PTSUNNY 54 51 90 W12G22 29.94R
SAN FRAN CITY N/A 52 MM 97 MISG
SAN FRAN ARPT CLOUDY 56 51 84 W18 29.95R
LIVERMORE CLOUDY 56 50 80 W9 29.92R
HAYWARD CLOUDY 55 50 83 W8 29.94R
REDWOOD CITY N/A MM MM MM MISG
MOFFETT ARPT PTSUNNY 55 51 86 NW7 29.95R
SAN JOSE ARPT CLOUDY 56 51 84 NW10 29.94R
$$
CAZ034-037-514>518-251600-
CENTRAL COAST

CITY SKY/WX TMP DP RH WIND PRES REMARKS
WATSONVILLE CLOUDY 58 53 84 SW7 29.95R
SALINAS CLOUDY 57 54 88 SW15 29.96R
MONTEREY CLOUDY 55 53 93 W8 29.98R
PT PIEDRAS BLS NOT AVBL
SAN LUIS OBISP LGT RAIN 51 50 96 S5 29.99F FOG
SANTA MARIA CLOUDY 55 50 83 SE6 30.01F HAZE
$$
CAZ015-016-251600-
NORTHERN SACRAMENTO VALLEY

CITY SKY/WX TMP DP RH WIND PRES REMARKS
REDDING MOSUNNY 55 51 86 NW5 29.90R
RED BLUFF MOSUNNY 54 52 93 NW5 29.90S
OROVILLE CLOUDY 54 52 93 CALM 29.90R
$$
CAZ016>018-251600-
SOUTHERN SACRAMENTO VALLEY

CITY SKY/WX TMP DP RH WIND PRES REMARKS
AUBURN CLOUDY 52 50 93 SW3 29.88R
BEALE AFB CLOUDY 54 54 100 N3 29.88R
LINCOLN CLOUDY 52 50 93 CALM 29.89R
MARYSVILLE CLOUDY 55 51 86 NE6 29.90R
SAC INTL ARPT SUNNY 56 50 80 W7 29.88R
MATHER AIRPORT MOSUNNY 54 54 100 SW6 29.89R
DOWNTOWN SAC N/A 55 MM MM MISG
SAC EXEC ARPT SUNNY 56 52 86 SW7 29.89R
VACAVILLE SUNNY 56 50 80 SW8 29.90R
TRAVIS AFB NOT AVBL
$$
CAZ019>021-251600-
SAN JOAQUIN VALLEY

CITY SKY/WX TMP DP RH WIND PRES REMARKS
STOCKTON SUNNY 57 52 83 W6 29.90R
MODESTO MOSUNNY 59 52 77 W6 29.91R
MERCED LGT RAIN 52 52 100 SE3 29.93R FOG
LEMOORE LGT RAIN 53 49 86 SE12 29.95S
FRESNO HVY RAIN 51 49 92 SE7 29.95R FOG
HANFORD LGT RAIN 54 49 83 S9 29.95S
PORTERVILLE CLOUDY 52 46 82 SE14 29.96F
BAKERSFIELD PTSUNNY 56 43 61 NE3 29.96F
$$
CAZ011-012-071-251600-
NORTHERN MOUNTAINS

CITY SKY/WX TMP DP RH WIND PRES REMARKS
YREKA SUNNY 39 35 86 CALM 29.95R
MOUNT SHASTA PTSUNNY 39 34 82 NW7 29.90R WCI 34
ALTURAS CLOUDY 37 34 89 CALM 29.87R
$$
CAZ011-012-071-251600-
SIERRA NEVADA MTNS

CITY SKY/WX TMP DP RH WIND PRES REMARKS
BLUE CANYON FOG 36 34 92 W5 29.86R VSB 1/4 WCI 32
TRUCKEE CLOUDY 32 30 93 CALM 29.82F FOG
TAHOE VLY ARPT LGT SNOW 36 30 79 S5 29.81R WCI 32
MAMMOTH LAKES LGT SNOW 32 32 100 N8 29.84F VSB 3/4 WCI 25
$$



Webmaster
US Dept of Commerce
National Oceanic and Atmospheric Administration
National Weather Service
Los Angeles/Oxnard Weather Forecast Office
520 North Elevar Street
Oxnard, CA 93030

Tel: (805) 988-6610

Disclaimer
Information Quality
Credits
Glossary
Organization
Privacy Policy
Freedom of Information Act
About Us
Career Opportunities